Previsão horária em Alimbay

Hoje, 19 Junho, Sábado

Tempo Temperatura Precipitação Vento Pressão Humidade
00:00 +15°C° 0 mm 5 m/s 742 mmHg 51%
01:00 +14°C° 0 mm 4 m/s 742 mmHg 55%
02:00 +14°C° 0 mm 4 m/s 743 mmHg 57%
03:00 +13°C° 0 mm 3 m/s 743 mmHg 59%
04:00 +13°C° 0 mm 2 m/s 743 mmHg 60%
05:00 +15°C° 0 mm 2 m/s 744 mmHg 56%
06:00 +16°C° 0 mm 2 m/s 744 mmHg 51%
07:00 +17°C° 0 mm 2 m/s 745 mmHg 47%
08:00 +18°C° 0 mm 3 m/s 745 mmHg 43%
09:00 +20°C° 0 mm 4 m/s 745 mmHg 39%
10:00 +21°C° 0 mm 5 m/s 745 mmHg 35%
11:00 +22°C° 0 mm 4 m/s 745 mmHg 32%
12:00 +23°C° 0 mm 4 m/s 745 mmHg 30%
13:00 +23°C° 0 mm 4 m/s 744 mmHg 28%
14:00 +25°C° 0 mm 4 m/s 744 mmHg 28%
15:00 +25°C° 0 mm 5 m/s 744 mmHg 28%
16:00 +25°C° 0 mm 5 m/s 744 mmHg 28%
17:00 +25°C° 0 mm 4 m/s 743 mmHg 31%
18:00 +24°C° 0 mm 3 m/s 743 mmHg 34%
19:00 +24°C° 0 mm 2 m/s 743 mmHg 38%
20:00 +22°C° 0 mm 3 m/s 743 mmHg 42%
21:00 +20°C° 0 mm 3 m/s 743 mmHg 46%
22:00 +19°C° 0 mm 4 m/s 743 mmHg 50%
23:00 +18°C° 0 mm 4 m/s 743 mmHg 55%

Amanhã, 20 Junho, Domingo

Tempo Temperatura Precipitação Vento Pressão Humidade
00:00 +18°C° 0 mm 4 m/s 743 mmHg 61%
01:00 +17°C° 0 mm 3 m/s 743 mmHg 67%
02:00 +17°C° 0 mm 4 m/s 742 mmHg 69%
03:00 +15°C° 0 mm 4 m/s 742 mmHg 72%
04:00 +15°C° 0 mm 4 m/s 742 mmHg 74%
05:00 +17°C° 0 mm 5 m/s 742 mmHg 70%
06:00 +19°C° 0 mm 6 m/s 742 mmHg 65%
07:00 +21°C° 0 mm 7 m/s 742 mmHg 61%
08:00 +23°C° 0 mm 8 m/s 742 mmHg 56%
09:00 +24°C° 0 mm 8 m/s 741 mmHg 52%
10:00 +27°C° 0 mm 9 m/s 741 mmHg 47%
11:00 +28°C° 0 mm 9 m/s 741 mmHg 45%
12:00 +29°C° 0 mm 9 m/s 740 mmHg 43%
13:00 +31°C° 0 mm 9 m/s 740 mmHg 40%
14:00 +31°C° 0 mm 9 m/s 740 mmHg 42%
15:00 +29°C° 0 mm 9 m/s 740 mmHg 44%
16:00 +29°C° 0 mm 8 m/s 740 mmHg 47%
17:00 +29°C° 0 mm 8 m/s 740 mmHg 46%
18:00 +29°C° 0 mm 8 m/s 740 mmHg 46%
19:00 +28°C° 0 mm 8 m/s 740 mmHg 46%
20:00 +27°C° 0 mm 7 m/s 740 mmHg 49%
21:00 +24°C° 0 mm 6 m/s 740 mmHg 51%
22:00 +22°C° 0 mm 6 m/s 741 mmHg 54%
23:00 +21°C° 0 mm 5 m/s 741 mmHg 53%

Depois de amanhã, 21 Junho, Segunda-feira

Tempo Temperatura Precipitação Vento Pressão Humidade
00:00 +19°C° 0 mm 5 m/s 741 mmHg 52%
01:00 +17°C° 0 mm 4 m/s 741 mmHg 52%
02:00 +15°C° 0 mm 4 m/s 742 mmHg 52%
03:00 +15°C° 0 mm 4 m/s 742 mmHg 53%
04:00 +14°C° 0 mm 3 m/s 743 mmHg 54%
05:00 +15°C° 0 mm 4 m/s 743 mmHg 48%
06:00 +16°C° 0 mm 5 m/s 743 mmHg 43%
07:00 +17°C° 0 mm 6 m/s 744 mmHg 38%
08:00 +20°C° 0 mm 6 m/s 744 mmHg 33%
09:00 +21°C° 0 mm 6 m/s 744 mmHg 29%
10:00 +22°C° 0 mm 7 m/s 744 mmHg 25%
11:00 +23°C° 0 mm 7 m/s 744 mmHg 24%
12:00 +24°C° 0 mm 7 m/s 744 mmHg 23%
13:00 +26°C° 0 mm 7 m/s 744 mmHg 22%
14:00 +26°C° 0 mm 6 m/s 744 mmHg 21%
15:00 +26°C° 0 mm 6 m/s 744 mmHg 21%
16:00 +26°C° 0 mm 6 m/s 744 mmHg 20%
17:00 +26°C° 0 mm 5 m/s 744 mmHg 23%
18:00 +25°C° 0 mm 4 m/s 744 mmHg 26%
19:00 +24°C° 0 mm 3 m/s 744 mmHg 29%
20:00 +21°C° 0 mm 3 m/s 744 mmHg 31%
21:00 +20°C° 0 mm 3 m/s 744 mmHg 33%
22:00 +18°C° 0 mm 3 m/s 744 mmHg 35%
23:00 +17°C° 0 mm 3 m/s 744 mmHg 36%

22 Junho, Terça-feira

Tempo Temperatura Precipitação Vento Pressão Humidade
00:00 +16°C° 0 mm 2 m/s 744 mmHg 37%
01:00 +16°C° 0 mm 2 m/s 744 mmHg 38%
02:00 +15°C° 0 mm 2 m/s 744 mmHg 39%
03:00 +15°C° 0 mm 2 m/s 744 mmHg 40%
04:00 +15°C° 0 mm 2 m/s 745 mmHg 41%
05:00 +17°C° 0 mm 2 m/s 745 mmHg 38%
06:00 +19°C° 0 mm 2 m/s 745 mmHg 35%
07:00 +21°C° 0 mm 2 m/s 745 mmHg 32%
08:00 +24°C° 0 mm 3 m/s 745 mmHg 30%
09:00 +25°C° 0 mm 3 m/s 745 mmHg 29%
10:00 +27°C° 0 mm 4 m/s 744 mmHg 28%
11:00 +28°C° 0 mm 4 m/s 744 mmHg 29%
12:00 +29°C° 0 mm 5 m/s 744 mmHg 31%
13:00 +32°C° 0 mm 5 m/s 743 mmHg 32%
14:00 +30°C° 0 mm 5 m/s 743 mmHg 35%
15:00 +30°C° 0 mm 5 m/s 743 mmHg 37%
16:00 +30°C° 0 mm 5 m/s 742 mmHg 39%
17:00 +30°C° 0 mm 5 m/s 742 mmHg 42%
18:00 +29°C° 0 mm 4 m/s 742 mmHg 46%
19:00 +28°C° 0 mm 4 m/s 742 mmHg 49%
20:00 +27°C° 0 mm 4 m/s 742 mmHg 54%
21:00 +25°C° 0 mm 4 m/s 742 mmHg 59%
22:00 +23°C° 0 mm 4 m/s 742 mmHg 64%
23:00 +22°C° 0 mm 4 m/s 742 mmHg 69%

23 Junho, Quarta-feira

Tempo Temperatura Precipitação Vento Pressão Humidade
00:00 +22°C° 0 mm 4 m/s 741 mmHg 74%
01:00 +21°C° 0 mm 4 m/s 741 mmHg 78%
02:00 +20°C° 0 mm 4 m/s 741 mmHg 80%
03:00 +20°C° 0 mm 4 m/s 741 mmHg 81%
04:00 +20°C° 0 mm 3 m/s 741 mmHg 83%
05:00 +21°C° 0 mm 4 m/s 741 mmHg 76%
06:00 +23°C° 0 mm 4 m/s 742 mmHg 70%
07:00 +25°C° 0 mm 5 m/s 742 mmHg 63%
08:00 +26°C° 0 mm 5 m/s 742 mmHg 59%
09:00 +27°C° 0 mm 5 m/s 742 mmHg 54%
10:00 +28°C° 0 mm 5 m/s 742 mmHg 50%
11:00 +29°C° 0 mm 5 m/s 742 mmHg 48%
12:00 +29°C° 0 mm 5 m/s 742 mmHg 46%
13:00 +30°C° 0 mm 5 m/s 742 mmHg 43%
14:00 +30°C° 0 mm 5 m/s 742 mmHg 43%
15:00 +29°C° 0 mm 5 m/s 742 mmHg 43%
16:00 +29°C° 0 mm 5 m/s 742 mmHg 42%
17:00 +29°C° 0 mm 4 m/s 742 mmHg 44%
18:00 +28°C° 0 mm 4 m/s 742 mmHg 46%
19:00 +27°C° 0 mm 3 m/s 742 mmHg 48%
20:00 +25°C° 0 mm 3 m/s 742 mmHg 50%
21:00 +24°C° 0 mm 3 m/s 742 mmHg 52%
22:00 +21°C° 0 mm 2 m/s 742 mmHg 55%
23:00 +21°C° 0 mm 2 m/s 742 mmHg 55%

24 Junho, Quinta-feira

Tempo Temperatura Precipitação Vento Pressão Humidade
00:00 +20°C° 0 mm 2 m/s 742 mmHg 56%
01:00 +20°C° 0 mm 2 m/s 742 mmHg 56%
02:00 +19°C° 0 mm 3 m/s 742 mmHg 57%
03:00 +19°C° 0 mm 3 m/s 742 mmHg 58%
04:00 +18°C° 0 mm 3 m/s 742 mmHg 58%
05:00 +20°C° 0 mm 4 m/s 742 mmHg 57%
06:00 +22°C° 0 mm 4 m/s 741 mmHg 55%
07:00 +25°C° 0 mm 5 m/s 741 mmHg 53%
08:00 +27°C° 0 mm 5 m/s 741 mmHg 51%
09:00 +28°C° 0 mm 6 m/s 740 mmHg 48%
10:00 +30°C° 0 mm 6 m/s 740 mmHg 45%
11:00 +32°C° 0 mm 7 m/s 739 mmHg 42%
12:00 +32°C° 0 mm 7 m/s 739 mmHg 40%
13:00 +33°C° 0 mm 8 m/s 739 mmHg 37%
14:00 +33°C° 0 mm 7 m/s 738 mmHg 38%
15:00 +33°C° 0 mm 7 m/s 738 mmHg 39%
16:00 +32°C° 0 mm 7 m/s 738 mmHg 40%
17:00 +29°C° 0.9 mm 6 m/s 738 mmHg 52%
18:00 +26°C° 0.9 mm 5 m/s 738 mmHg 65%
19:00 +23°C° 0.9 mm 4 m/s 738 mmHg 77%
20:00 +22°C° 1.1 mm 3 m/s 738 mmHg 80%
21:00 +22°C° 1.1 mm 3 m/s 739 mmHg 82%
22:00 +21°C° 1.1 mm 3 m/s 739 mmHg 85%
23:00 +20°C° 0 mm 3 m/s 739 mmHg 82%
Mostrar mais